Tracking 33068 objects as of 24-Jan-2026
HD Live streaming from Space Station
objects crossing your sky now

ONEWEB-0208

Track ONEWEB-0208 now!
10-day predictions
ONEWEB-0208 is classified as:


NORAD ID: 48243
Int'l Code: 2021-031AK
Perigee: 1,211.7 km
Apogee: 1,214.1 km
Inclination: 87.9 °
Period: 109.5 minutes
Semi major axis: 7583 km
RCS: Unknown
Launch date: April 25, 2021
Source: United Kingdom (UK)
Launch site: VOSTOCHNY COSMODROME (VOSTO)
Your satellite tracking list
Your tracking list is empty




NASA's NSSDC Master Catalog

Two Line Element Set (TLE):
1 48243U 21031AK  26024.22121632 -.00000107  00000-0 -32179-3 0  9996
2 48243  87.9032 318.3991 0001549  85.5437 274.5870 13.14505352229394
Source of the keplerian elements: AFSPC